Location: Austin
(30.3000°N, 97.7500°W)
Time: 15:26:12
(UTC-05:00)

SL-08 R/B - Pass Details

Date: 01 August 2025
Orbit: 955 x 1011 km, 82.9° (Epoch: 11 April)

Event Time Altitude Azimuth Distance (km) Brightness Sun altitude
Rises 05:11:02 0° 350° (N) 3,651 7.8 -19.6°
Reaches altitude 10° 05:13:33 10° 347° (NNW) 2,708 7.1 -19.1°
Maximum altitude 05:19:39 64° 268° (W) 1,075 4.5 -18.0°
Enters shadow 05:25:44 11° 188° (S) 2,697 6.4 -16.9°
